Location: Aufkirchen
(47.9603°N, 11.3653°E)
Time: 06:37:51
(UTC+01:00)

Transit 4A - Pass Details

Date: 01 December 2020
Orbit: 864 x 980 km, 66.8° (Epoch: 25 January)

Event Time Altitude Azimuth Distance (km) Brightness Sun altitude
Rises 09:09:36 0° 243° (WSW) 3,642 10.9 10.0°
Reaches altitude 10° 09:12:20 10° 251° (WSW) 2,710 10.2 10.3°
Maximum altitude 09:18:12 38° 318° (NW) 1,453 8.6 10.9°
Drops below altitude 10° 09:24:10 10° 26° (NNE) 2,740 10.1 11.5°
Sets 09:26:58 0° 34° (NE) 3,688 10.8 11.8°
